loading
|

STARLINK-11168, 60183

Orbit data source: Space-Track

STARLINK-11168, 60183 is a payload satellite owned by SpaceX/Seattle (US) in LEO that was launched on Wed, 03 Jul 2024 UTC via an FALCON 9 launch vehicle from the Air Force Eastern Test Range (AFETR). Payloads include a variety of satellites, spacecraft, and rockets equipped with specific instruments for various scientific and technological missions. These include communications satellites like Starlink; space stations such as the ISS; scientific satellites like the Hubble; Earth observation satellites from companies like Planet Labs, Umbra, and HawkEye 360; GPS; miniature CubeSats for education and research; and military/defense satellites.

Loading next visibility...
Next conjunction unknown
Loading greatness...
STARLINK-11168 details
Identifier
60183, 2024-124A
Orbit
LEO
Last TLE update13 hours ago
Origin
Flag of USSpaceX/Seattle (US)
ManufacturerSpaceX/Seattle
MissionOperational spacecraft
Bus & MotorSTARLINK V2M, Unknown motor
Mass750 kg wet, ~700 kg dry
Launch date (UTC)
2024-07-03 (3 months ago)
Launch vehicle
FALCON 9
Launch site
Air Force Eastern Test Range (AFETR)
Object type
Payload
Rocket body
Debris
Shape & HBRUnknown
Radar Cross SectionLarge (>1 m²)

Expand to show TLE details & history

TLE from 13 hours ago
0 STARLINK-11168
1 60183U 24124A   24288.03308327  .00008781  00000-0  77455-4 0  9997
2 60183  53.1589 163.4610 0000842 112.7315 247.3792 15.69646994 17377
Epoch: 2024-10-14T00:47Z
Definitive object data (Epoch: 2024-10-14T00:47:38.394Z)
Latitude-0.00002°
Longitude128.48498°
Altitude361.04 km
Speed7.694 km/s
True Right ascension10h 53m 50s
True Declination0° 00' 00"
Sunlit
Object was in daylight at TLE epoch
Predictive object data (real-time)
Latitude44.73834°
Longitude-101.71151°
Altitude363.927 km
Speed7.697 km/s
Apparent Right ascension19h 49m 18s
Apparent Declination3° 51' 25"
Sunlit
Object is in daylight
Predictive observer data (real-time)
Local Sidereal Time08:05:13
Azimuth5.725° NNE
Elevation-46.074°
Doppler factor1
Orbital elements
Apogee360.735 km
Perigee359.601 km
Semi-major axis6,738.305 km
Eccentricity0.0000842
Inclination53.1589°
RAAN163.461°
Arg. of periapsis112.7315°
True anomaly247.37029°
Mean anomaly247.3792°
Eccentric anomaly247.37475°
Mean motion3.92389 °/min
BSTAR0.000077455
Period91.75 mins
No data available

STARLINK-11168 Visibility forecast

Observer location: 39.9160978°, -105.1181434

Span
Click to sort rows by Start time (UTC) header in descending order
Start Az.
Max El. time (UTC)
Max El. Az.
Max El.
End time (UTC)
End Az.
4 mins2024-10-15 01:46:20.070Z284.712° WNW2024-10-15 01:47:20.070Z253.282° W32.34°2024-10-15 01:50:20.070Z152.881° SSE